+ View the NASA Portal
+ Center for Near-Earth Object Studies
IMPORTANT:
The SSD Announcement email list is now available. Major changes are coming in the near future, including possible hostname and/or URL changes. To be notified of such changes, subscribe to this email list.
Please visit
this page
for more details.
Don't show this message again
JPL Small-Body Database Browser
Search:
[
help
]
173935 (2001 VA125)
Classification:
Main-belt Asteroid
SPK-ID:
2173935
[
Ephemeris
|
Orbit Diagram
|
Orbital Elements
|
Mission Design
|
Physical Parameters
|
Discovery Circumstances
|
Close-Approach Data
]
[ show orbit diagram ]
Orbital Elements at Epoch 2458600.5 (2019-Apr-27.0) TDB
Reference:
JPL 10
(heliocentric ecliptic J2000)
Element
Value
Uncertainty (1-sigma)
Units
e
.1690652074080849
7.1201e-08
a
3.088449567753643
3.0413e-08
au
q
2.566300201011964
2.1555e-07
au
i
7.76051021020945
5.2956e-06
deg
node
296.5611794946916
6.0059e-05
deg
peri
83.59227827902457
6.3012e-05
deg
M
112.9071323110165
1.6595e-05
deg
t
p
2457978.732419000827
(2017-Aug-13.23241900)
9.0864e-05
TDB
period
1982.481749187622
5.43
2.9283e-05
8.017e-08
d
yr
n
.1815905746156403
2.6823e-09
deg/d
Q
3.610598934495323
3.5555e-08
au
Orbit Determination Parameters
# obs. used (total)
373
data-arc span
8098 days (22.17 yr)
first obs. used
1997-01-03
last obs. used
2019-03-07
planetary ephem.
DE431
SB-pert. ephem.
SB431-N16
condition code
0
norm. resid. RMS
.48489
source
ORB
producer
Otto Matic
solution date
2019-Jul-13 05:57:38
Additional Information
Earth MOID
= 1.58257 au
Jupiter MOID
= 1.97298 au
T_jup
= 3.190
[ show covariance matrix ]
[
Ephemeris
|
Orbit Diagram
|
Orbital Elements
|
Mission Design
|
Physical Parameters
|
Discovery Circumstances
|
Close-Approach Data
]
Physical Parameter Table
Parameter
Symbol
Value
Units
Sigma
Reference
Notes
absolute magnitude
H
15.2
n/a
MPO248302
diameter
diameter
6.130
km
0.224
urn:nasa:pds:neowise_diameters_albedos::2.0[mainbelt] (http://adsabs.harvard.edu/abs/2011ApJ...741...68M)
geometric albedo
albedo
0.043
0.013
urn:nasa:pds:neowise_diameters_albedos::2.0[mainbelt] (http://adsabs.harvard.edu/abs/2011ApJ...741...68M)
173935 (2001 VA125)
Discovered 2001-Nov-11 by LINEAR at Socorro
Reference:
20080122/Numbers.arc
Last Updated:
2008-01-28
[ show close-approach data ]
Alternate Designations
2001 VA125
= 2007 YY45
[
Ephemeris
|
Orbit Diagram
|
Orbital Elements
|
Mission Design
|
Physical Parameters
|
Discovery Circumstances
|
Close-Approach Data
]
2019-Dec-15 19:40 UT
(server date/time)
Site Manager:
Ryan S. Park
Webmaster
:
Alan B. Chamberlin